Vorticity
11 12 5 5 5 1 6 13 20 28 28 34 26 22 18 17 18 15 14 16 7 9 16 1 19 21 24 24 17 14 11 11 12 -0 22 42 35 16 9 19 8 3 -2 12 -12 -7 14 2 7 3 -8 45 31 -48
19 25 26 31 28 24 21 21 21 18 13 10 6 8 13 13 7 -5 8 2 1 -2 7 -1 24 26 16 25 30 10 6 18 5 2 -5 28 15 26 11 10 6 18 17 18 9 15 5 12 0 3 6 1 11 29
26 18 11 10 8 10 11 7 12 -2 3 2 13 11 10 16 9 10 1 14 8 -2 0 4 42 11 11 10 26 36 6 -5 8 2 -6 20 11 -5 24 24 46 -6 22 0 13 11 14 19 10 8 16 13 9 18
11 10 7 4 14 16 5 -2 3 1 -0 11 20 19 9 15 10 6 24 10 6 6 16 33 30 6 13 23 15 41 17 18 11 15 8 10 5 -1 28 14 19 -5 -38 34 53 24 12 6 10 -0 1 3 15 20
0 5 9 9 18 20 12 9 17 22 27 50 27 11 17 15 8 23 7 6 13 5 23 33 16 23 12 27 42 40 16 15 12 19 20 2 -1 26 14 -6 14 15 15 21 13 6 6 3 -1 3 -1 2 8 33
8 6 25 22 21 21 40 47 37 20 23 57 20 18 17 3 19 5 11 7 13 33 15 6 30 23 29 36 13 12 21 15 15 16 25 25 6 25 13 1 8 3 12 12 4 5 5 4 1 -1 -0 -4 13 28
9 22 38 49 40 62 56 53 42 39 49 34 11 8 4 2 6 13 12 6 37 9 2 34 26 15 11 15 16 13 14 21 15 11 16 24 27 19 3 -5 11 12 1 3 6 1 1 1 5 7 4 14 26 24
11 27 40 18 19 39 52 57 52 46 23 3 4 9 7 14 11 13 28 28 21 -2 44 16 17 3 8 4 1 5 11 11 13 27 15 14 18 4 7 3 6 4 4 3 1 -0 2 18 25 23 21 25 19 17
12 41 58 33 14 21 6 5 4 4 5 5 7 9 20 40 51 33 25 26 30 28 25 10 3 6 6 12 15 17 26 33 23 8 22 4 3 10 8 9 8 4 5 1 7 12 18 30 28 23 33 30 14 20
21 10 9 20 51 63 58 55 60 62 58 52 35 22 13 14 24 32 19 19 12 15 13 16 5 5 13 9 25 23 8 12 15 16 0 -2 1 3 8 4 10 5 -4 20 19 26 23 21 31 37 26 24 31 14
12 1 2 3 -3 -3 4 4 3 19 14 20 26 20 20 15 9 8 16 18 23 31 25 12 17 11 16 23 10 9 15 16 12 7 7 8 10 4 4 6 9 5 9 16 36 14 1 16 14 10 14 9 5 12
2 11 -2 10 3 1 2 2 -0 4 7 11 2 3 -3 21 1 4 9 10 12 1 7 11 12 6 -2 1 -1 15 17 4 3 4 7 5 3 14 23 -6 8 12 17 11 11 5 14 12 9 14 8 10 13 11
-4 1 3 -0 -2 4 5 3 -0 2 4 0 5 6 8 12 7 12 13 13 1 -7 12 7 6 3 4 5 8 5 7 6 6 9 14 2 11 -2 9 9 3 11 20 10 27 18 24 8 19 18 13 11 17 17
4 7 7 3 13 8 -1 -4 3 -1 1 -1 -0 3 3 4 3 12 15 15 5 9 15 10 6 8 10 7 10 11 6 4 3 8 15 10 8 1 8 13 16 11 18 5 14 22 6 5 7 10 10 13 14 10
6 6 6 6 4 3 1 5 6 8 5 6 3 5 1 3 3 6 8 9 11 8 9 9 11 11 3 5 6 5 8 11 8 9 6 10 6 11 7 6 5 22 21 6 5 7 9 6 18 17 12 13 13 12
3 4 3 3 5 3 2 4 4 4 3 6 3 2 7 3 5 8 8 7 5 5 5 5 6 7 0 0 11 13 14 10 12 8 -7 1 7 10 11 14 14 10 24 18 4 4 6 4 13 7 8 11 12 12
6 8 16 30 20 21 27 17 8 4 4 1 3 3 6 7 7 8 7 7 7 7 7 6 4 8 7 9 6 11 6 7 10 23 -11 -0 6 2 20 8 -0 4 10 17 18 14 11 9 9 10 -1 -1 5 11
22 24 23 22 18 22 5 7 30 28 15 6 5 6 4 -3 1 4 6 8 10 11 11 9 8 6 7 5 7 8 12 6 2 1 2 1 4 6 13 8 2 -2 9 5 13 21 18 14 14 14 12 8 5 7
14 13 13 15 17 20 27 19 21 17 18 21 19 20 21 22 20 19 17 11 8 10 10 12 12 13 9 11 12 11 6 8 7 4 7 9 13 14 13 20 16 8 4 5 8 2 12 21 16 14 16 13 10 10
12 12 15 15 13 16 11 9 14 14 21 23 17 18 19 14 11 9 10 10 10 10 12 10 8 9 10 11 10 7 7 6 10 11 9 12 18 7 14 21 0 12 8 6 4 1 7 6 16 17 17 15 13 12
7 7 7 8 9 11 9 12 13 15 17 12 10 12 11 11 16 21 24 23 20 15 11 11 10 8 7 5 5 7 8 9 10 9 12 10 9 11 13 15 13 17 9 2 0 1 -2 -1 3 10 19 13 11 12
8 6 7 9 9 8 6 7 6 9 14 12 17 13 22 14 12 10 9 13 10 13 18 22 22 19 15 12 10 8 7 6 5 5 6 7 7 6 5 10 15 12 15 12 7 2 0 2 2 2 10 11 14 12
10 8 7 14 12 11 9 10 8 7 5 5 6 8 11 14 17 15 14 10 9 11 9 10 13 14 17 19 21 22 22 17 14 11 10 9 7 5 5 5 7 8 11 14 15 13 11 10 6 5 6 10 9 11
8 10 15 12 12 10 10 10 8 8 9 7 8 8 7 9 6 11 14 12 18 14 15 11 6 6 9 9 9 10 13 16 22 26 28 27 22 17 15 11 8 6 5 6 8 11 15 18 15 11 8 9 13 7
11 11 13 13 10 9 7 8 8 9 8 9 11 11 11 10 12 14 15 11 22 18 10 9 9 14 11 8 10 10 9 7 7 10 14 14 16 20 27 28 23 17 12 10 8 6 6 8 9 10 12 15 10 13
14 13 10 7 6 8 7 7 8 10 11 11 10 10 11 9 10 8 15 16 18 18 17 18 18 16 11 11 10 9 10 10 11 8 9 11 12 12 12 14 22 25 26 24 17 14 13 11 9 7 7 12 13 9
13 8 7 8 6 5 6 8 12 12 10 8 7 12 17 14 12 11 10 10 12 9 11 12 13 13 14 15 15 14 13 14 17 18 14 14 12 11 14 16 16 23 26 21 20 22 19 16 16 16 13 10 8 10
8 8 7 4 5 3 8 11 9 12 13 7 7 14 15 15 14 13 10 9 9 11 10 10 11 10 10 11 14 18 17 17 16 16 12 14 12 13 14 14 15 18 24 24 22 16 18 22 21 17 18 18 16 13
7 8 7 4 4 5 9 9 11 12 8 6 11 14 13 15 15 12 12 11 10 9 12 18 17 16 15 13 10 13 16 18 20 19 18 13 12 20 17 16 19 18 18 21 23 19 16 14 17 22 22 17 22 19
8 7 5 4 4 8 9 10 10 10 7 8 12 13 12 12 10 13 17 19 20 18 16 15 13 13 15 17 21 17 15 13 12 15 15 13 15 17 18 17 15 16 19 20 20 21 19 14 10 12 17 20 18 20
7 6 7 6 8 11 10 12 12 8 9 11 14 14 10 11 15 22 24 22 22 23 23 21 19 17 18 19 16 16 15 17 15 14 13 14 14 18 18 16 17 18 16 19 20 22 22 21 17 8 10 16 20 20
9 6 8 9 11 10 10 13 7 9 10 15 14 12 14 16 22 28 32 26 25 24 20 18 22 24 24 23 20 18 17 17 15 13 14 18 20 19 21 21 19 18 18 20 23 22 22 21 21 22 13 5 9 20
9 9 7 9 10 11 12 8 9 10 14 13 12 14 21 31 28 24 24 21 19 19 19 18 19 18 18 18 18 18 19 18 17 16 16 17 17 18 22 22 23 23 25 24 24 20 17 20 22 17 5 8 17 21
Height
5518 5516 5515 5513 5511 5509 5507 5504 5501 5498 5496 5493 5488 5483 5480 5478 5478 5477 5474 5467 5463 5467 5473 5463 5464 5460 5458 5457 5461 5467 5469 5470 5472 5473 5473 5475 5476 5477 5482 5487 5490 5493 5493 5494 5493 5495 5495 5496 5499 5501 5503 5500 5497 5497
5506 5503 5499 5496 5493 5491 5488 5486 5484 5482 5478 5475 5472 5470 5470 5470 5468 5468 5464 5459 5455 5456 5462 5456 5453 5450 5447 5448 5448 5454 5459 5462 5464 5464 5465 5465 5469 5472 5477 5479 5483 5488 5487 5488 5490 5491 5492 5492 5493 5494 5494 5495 5492 5493
5491 5488 5484 5481 5478 5474 5471 5469 5467 5465 5461 5459 5458 5458 5458 5459 5459 5459 5457 5451 5449 5448 5451 5449 5447 5444 5441 5440 5439 5442 5450 5455 5457 5457 5460 5463 5465 5467 5470 5475 5475 5475 5481 5481 5484 5485 5485 5486 5487 5488 5488 5486 5484 5484
5483 5480 5475 5468 5463 5459 5456 5452 5448 5444 5443 5443 5442 5444 5447 5449 5450 5450 5448 5443 5441 5439 5439 5443 5436 5438 5435 5433 5434 5435 5442 5447 5451 5453 5456 5458 5462 5465 5469 5471 5473 5476 5477 5476 5478 5478 5478 5481 5483 5483 5482 5481 5480 5478
5475 5469 5462 5453 5445 5437 5431 5427 5422 5419 5418 5421 5426 5433 5438 5441 5442 5441 5440 5437 5435 5432 5429 5430 5430 5430 5427 5425 5425 5429 5437 5441 5444 5448 5451 5456 5460 5461 5464 5468 5472 5473 5475 5475 5474 5475 5477 5478 5478 5478 5476 5474 5472 5470
5466 5458 5446 5434 5422 5414 5405 5398 5396 5398 5403 5408 5418 5425 5431 5434 5434 5435 5434 5432 5429 5426 5423 5423 5422 5421 5421 5421 5425 5430 5434 5438 5440 5443 5448 5453 5457 5460 5462 5466 5467 5469 5470 5470 5471 5471 5473 5473 5472 5470 5468 5468 5465 5463
5460 5446 5431 5419 5405 5392 5383 5381 5384 5389 5395 5405 5416 5422 5426 5428 5429 5429 5429 5427 5425 5424 5422 5419 5419 5419 5420 5423 5426 5430 5433 5436 5439 5442 5446 5451 5455 5457 5461 5464 5466 5465 5466 5467 5467 5466 5466 5465 5463 5461 5459 5457 5456 5456
5452 5436 5422 5416 5407 5395 5386 5384 5387 5392 5401 5409 5416 5419 5422 5423 5423 5423 5422 5422 5422 5423 5422 5421 5422 5423 5425 5427 5429 5433 5435 5435 5438 5441 5446 5450 5453 5456 5461 5462 5462 5464 5465 5465 5463 5461 5458 5455 5452 5449 5447 5446 5447 5448
5450 5438 5426 5420 5414 5408 5403 5402 5402 5406 5410 5413 5416 5418 5418 5419 5419 5420 5420 5421 5422 5424 5424 5425 5426 5428 5429 5429 5430 5433 5434 5436 5440 5443 5446 5451 5454 5457 5458 5458 5460 5460 5459 5458 5457 5453 5448 5443 5441 5438 5437 5438 5440 5442
5458 5450 5440 5431 5423 5417 5413 5411 5411 5411 5413 5415 5418 5418 5419 5420 5421 5422 5424 5425 5426 5428 5429 5430 5431 5432 5433 5432 5433 5432 5436 5441 5444 5447 5450 5452 5452 5454 5454 5455 5455 5455 5453 5449 5446 5443 5440 5438 5435 5432 5432 5432 5435 5438
5464 5459 5453 5446 5440 5435 5430 5428 5426 5425 5425 5425 5424 5424 5424 5425 5428 5429 5430 5431 5431 5433 5434 5435 5435 5434 5435 5436 5436 5437 5438 5442 5445 5449 5450 5451 5452 5452 5452 5452 5451 5449 5446 5443 5439 5437 5436 5435 5433 5432 5431 5431 5432 5434
5467 5465 5461 5456 5451 5447 5443 5440 5438 5436 5434 5434 5433 5433 5433 5434 5435 5436 5436 5437 5436 5437 5438 5439 5439 5439 5439 5438 5439 5442 5443 5445 5446 5448 5450 5450 5450 5450 5448 5447 5446 5443 5441 5439 5437 5435 5434 5433 5432 5431 5430 5430 5430 5431
5468 5467 5465 5462 5459 5455 5452 5449 5446 5444 5443 5441 5440 5439 5439 5440 5439 5439 5439 5440 5440 5440 5441 5442 5442 5441 5441 5442 5442 5444 5445 5447 5447 5448 5448 5447 5446 5445 5444 5443 5442 5440 5437 5436 5433 5432 5430 5429 5428 5427 5427 5427 5427 5427
5468 5467 5465 5463 5462 5460 5458 5455 5453 5451 5449 5447 5445 5443 5442 5442 5442 5443 5443 5442 5442 5442 5442 5442 5442 5443 5443 5443 5443 5444 5446 5446 5446 5446 5445 5445 5442 5442 5441 5439 5437 5435 5433 5433 5431 5430 5429 5428 5426 5425 5425 5425 5424 5425
5469 5467 5466 5464 5462 5460 5459 5457 5456 5454 5452 5451 5449 5447 5446 5446 5446 5445 5444 5444 5443 5443 5443 5443 5443 5443 5443 5443 5443 5444 5444 5444 5444 5443 5442 5440 5439 5437 5437 5435 5433 5430 5428 5428 5427 5426 5425 5424 5423 5422 5422 5421 5421 5421
5468 5466 5464 5462 5460 5459 5457 5456 5455 5454 5453 5452 5451 5449 5448 5448 5447 5446 5446 5445 5444 5443 5443 5443 5442 5442 5442 5442 5441 5441 5441 5440 5439 5438 5437 5436 5435 5434 5432 5430 5428 5426 5424 5423 5422 5421 5421 5420 5420 5419 5418 5418 5417 5417
5467 5465 5462 5460 5457 5455 5453 5452 5451 5451 5450 5449 5448 5447 5447 5446 5445 5444 5444 5443 5442 5442 5441 5440 5439 5439 5438 5438 5439 5437 5437 5435 5433 5431 5430 5430 5429 5427 5426 5425 5423 5422 5420 5417 5416 5415 5415 5414 5414 5414 5414 5413 5413 5412
5464 5462 5460 5458 5455 5453 5451 5448 5446 5446 5445 5444 5444 5443 5442 5441 5439 5438 5437 5437 5436 5436 5435 5434 5433 5433 5432 5431 5430 5430 5429 5427 5425 5424 5422 5421 5420 5420 5419 5418 5417 5416 5415 5413 5411 5409 5408 5407 5407 5406 5406 5406 5406 5406
5463 5460 5458 5455 5452 5450 5448 5446 5443 5443 5440 5439 5438 5437 5436 5434 5433 5432 5430 5429 5428 5428 5427 5426 5425 5424 5423 5422 5421 5420 5419 5417 5416 5414 5413 5411 5411 5411 5410 5410 5409 5408 5408 5407 5406 5404 5403 5401 5400 5399 5398 5399 5398 5398
5463 5461 5458 5455 5452 5450 5447 5444 5442 5439 5438 5436 5433 5431 5430 5428 5426 5424 5423 5422 5421 5420 5419 5417 5417 5415 5414 5412 5411 5409 5408 5407 5407 5405 5403 5401 5401 5400 5400 5400 5400 5400 5399 5399 5398 5398 5397 5395 5393 5392 5392 5391 5391 5391
5462 5460 5457 5455 5452 5449 5446 5443 5440 5438 5435 5433 5429 5427 5425 5422 5420 5418 5416 5414 5413 5411 5409 5408 5407 5405 5404 5402 5399 5399 5398 5397 5395 5394 5393 5392 5391 5390 5389 5389 5389 5389 5389 5389 5389 5389 5389 5388 5387 5386 5385 5384 5385 5384
5461 5458 5456 5452 5450 5447 5445 5441 5439 5435 5433 5429 5426 5423 5421 5418 5415 5412 5409 5407 5405 5402 5399 5397 5396 5394 5392 5390 5389 5387 5386 5384 5382 5381 5380 5380 5380 5379 5378 5377 5377 5377 5377 5377 5378 5379 5378 5378 5378 5378 5378 5377 5377 5377
5459 5456 5453 5450 5448 5445 5443 5439 5436 5432 5429 5426 5423 5419 5416 5412 5409 5405 5402 5399 5396 5393 5391 5388 5387 5385 5381 5378 5374 5373 5373 5370 5367 5366 5366 5365 5365 5364 5364 5364 5363 5364 5364 5363 5364 5365 5366 5367 5367 5368 5368 5369 5368 5368
5456 5453 5450 5447 5444 5442 5438 5435 5431 5428 5425 5420 5416 5412 5408 5405 5401 5397 5393 5388 5387 5384 5381 5380 5377 5373 5370 5366 5362 5361 5360 5357 5355 5353 5350 5349 5349 5348 5347 5347 5347 5347 5348 5350 5351 5351 5352 5353 5354 5355 5356 5357 5358 5358
5454 5451 5448 5444 5441 5438 5435 5431 5427 5422 5418 5413 5409 5404 5400 5396 5392 5387 5383 5379 5377 5373 5370 5367 5364 5362 5358 5355 5351 5348 5346 5344 5343 5342 5338 5335 5334 5333 5331 5330 5330 5329 5330 5332 5334 5336 5338 5339 5340 5341 5342 5343 5345 5346
5449 5446 5443 5440 5436 5433 5429 5425 5421 5416 5411 5406 5402 5397 5391 5386 5382 5376 5373 5369 5367 5363 5359 5356 5352 5348 5344 5341 5338 5335 5333 5330 5327 5326 5324 5322 5319 5317 5316 5315 5314 5312 5311 5313 5316 5318 5320 5322 5324 5326 5328 5329 5331 5332
5444 5441 5439 5435 5431 5427 5423 5419 5414 5409 5404 5399 5394 5387 5381 5376 5369 5365 5361 5357 5353 5349 5345 5341 5337 5334 5330 5327 5324 5320 5318 5315 5313 5312 5310 5307 5304 5302 5300 5300 5299 5299 5297 5296 5297 5299 5302 5304 5306 5309 5312 5314 5316 5318
5440 5437 5433 5430 5426 5421 5417 5412 5407 5402 5396 5390 5384 5377 5370 5366 5361 5355 5350 5345 5340 5335 5330 5326 5322 5318 5315 5312 5309 5307 5304 5301 5299 5296 5294 5291 5289 5287 5286 5285 5284 5284 5283 5282 5282 5284 5285 5287 5290 5292 5295 5298 5300 5303
5434 5431 5428 5424 5419 5414 5409 5404 5398 5392 5386 5379 5373 5365 5358 5353 5349 5342 5337 5332 5326 5321 5316 5312 5307 5303 5300 5296 5293 5291 5289 5287 5286 5283 5281 5279 5277 5273 5271 5271 5271 5270 5269 5269 5269 5270 5272 5274 5276 5278 5280 5282 5284 5287
5428 5424 5420 5416 5412 5407 5401 5395 5388 5381 5375 5367 5360 5352 5344 5339 5333 5327 5321 5315 5309 5304 5299 5294 5291 5288 5285 5283 5280 5276 5273 5271 5269 5268 5267 5265 5264 5262 5260 5258 5257 5256 5257 5257 5257 5258 5259 5261 5264 5266 5268 5269 5271 5273
5420 5417 5413 5408 5403 5397 5391 5385 5378 5371 5363 5356 5347 5339 5332 5323 5317 5312 5304 5298 5292 5287 5283 5279 5275 5272 5271 5269 5267 5265 5262 5258 5255 5253 5251 5250 5250 5249 5248 5246 5245 5244 5244 5244 5245 5246 5248 5250 5252 5255 5257 5259 5260 5261
5412 5408 5404 5399 5394 5388 5381 5374 5367 5360 5351 5343 5334 5325 5315 5306 5299 5294 5290 5284 5279 5274 5270 5266 5263 5261 5259 5255 5252 5250 5248 5247 5245 5243 5241 5239 5237 5236 5235 5234 5233 5233 5233 5234 5235 5236 5238 5240 5242 5245 5248 5250 5251 5252
5403 5399 5394 5388 5383 5376 5370 5363 5355 5347 5339 5329 5321 5313 5304 5295 5286 5281 5275 5270 5266 5263 5260 5256 5251 5248 5245 5242 5240 5240 5238 5236 5234 5232 5231 5229 5227 5225 5224 5223 5223 5222 5223 5225 5227 5229 5231 5233 5235 5238 5241 5242 5243 5244